STARLINK S

Last updated on Sun Jun 09 2024 00:02:05 GMT+0000 (Coordinated Universal Time)

1 59938U 24106S 24160.58335648 -.01034634 32271-3 -29499-2 0 9998 2 59938 43.0013 19.8155 0001859 264.5021 57.6380 15.92357377 2357

Satellite not in orbit